Find Starlink 4473

NORAD ID: 53660 Int'l Des: 2022-105 Owner: SPXS Country: US Constellation: starlink operational
LEOCIRCULARRETROGRADESSO

当前视图

正在加载3D地球...

About Starlink 4473

Starlink 4473 (NORAD 53660) is a starlink constellation satellite (v1.5) launched Aug 31, 2022 by SPXS of US. It operates in LEO, CIRCULAR, RETROGRADE, SSO orbit with a mass of 300.00 kg.

即将过境

Passes for default location (London). Set your location on the main map for personalized predictions.

高度历史

Loading altitude history...

两行轨道根数

1 53660U 22105N 26265.56481346 -.00000212 00000-0 -10786-4 0 9991
2 53660 97.2833 139.2669 0001965 74.3854 285.7590 15.05653028222852
Epoch: Sep 22, 2026 • Age: 10 hours

当前状态

高度 561.7 km
远地点 / 近地点 N/A
速度 7.59 km/s
星下点 82.01°N, 80.26°E
发射日期 Aug 31, 2022
运行时间 4 years
类型 internet

技术详情

分类 Payload
质量 300.00 kg
干质量 290.00 kg
长度 0.20 m
跨度 9.00 m
形状 ? Box + pan
制造商 SPXS
平台类型 Starlink
阶段状态 In Orbit
所有者/国家 SPXS/US

Most Searched